EUTELSAT 7A

Last updated on Thu Oct 30 2025 00:02:47 GMT+0000 (Coordinated Universal Time)

1 28187U 04008A 25302.51986432 .00000116 00000+0 00000+0 0 9994 2 28187 5.2409 74.7506 0000841 151.3919 219.9167 1.00272281 79047
UTC large
Height (km)
Speed (km/s)
/
Latitude / Longitude
Inclination (degrees)
Orbital Period (minutes)
Azimuth
Elevation
Range (km)
Doppler Factor

Next 0 passes for location: London (51.5072 / 0.1276)

Sorry there are no passes over London.